Weather reports worldwide

Advertisment
Tulloch Bridge, United Kingdom (3047): temperature & dewpoint: 11.10.2018 05:00:00 - 17.10.2018 05:00:00 (BST)Tulloch Bridge, United Kingdom (3047): temperature -20cm & temperature -100cm: 11.10.2018 05:00:00 - 17.10.2018 05:00:00 (BST)Tulloch Bridge, United Kingdom (3047): wind speed & gusts: 11.10.2018 05:00:00 - 17.10.2018 05:00:00 (BST)Tulloch Bridge, United Kingdom (3047): wind direction: 11.10.2018 05:00:00 - 17.10.2018 05:00:00 (BST)Tulloch Bridge, United Kingdom (3047): reduced air pressure: 11.10.2018 05:00:00 - 17.10.2018 05:00:00 (BST)Tulloch Bridge, United Kingdom (3047): visibility: 11.10.2018 05:00:00 - 17.10.2018 05:00:00 (BST)Tulloch Bridge, United Kingdom (3047): precipitation: 11.10.2018 05:00:00 - 17.10.2018 05:00:00 (BST)
Date & Time tt [°C] td [°C] tt -20cm [°C] tt -100cm [°C] ff [km/h] ff [kn] fx [km/h] fx [kn] dd ppp [hPa] vv [km] rr [mm]
17.10.2018 05:00:00 9,1 6,4 - - 15 8 - - SW 1011,1 19 0,2
17.10.2018 04:00:00 8,9 7,0 - - 11 6 - - SSW 1010,6 50 0,2
17.10.2018 03:00:00 8,7 7,3 - - 13 7 - - SW 1010,3 9 0,0
17.10.2018 02:00:00 9,4 6,2 - - 11 6 - - SW 1010,0 40 0,0
17.10.2018 01:00:00 9,2 8,3 - - 4 2 - - WSW 1009,5 35 1,2
17.10.2018 00:00:00 9,6 8,8 - - 9 5 - - W 1008,2 13 1,4
16.10.2018 23:00:00 10,5 7,5 - - 18 10 - - SW 1007,8 11 0,6
16.10.2018 22:00:00 10,5 9,0 - - 16 9 - - SSW 1007,3 22 0,6
16.10.2018 21:00:00 11,2 8,4 - - 26 14 - - SSW 1007,0 15 0,0
16.10.2018 20:00:00 11,3 7,8 - - 18 10 - - SSW 1007,0 16 0,0
16.10.2018 19:00:00 11,2 7,9 - - 15 8 - - SSW 1006,6 35 0,0
16.10.2018 18:00:00 10,9 8,1 - - 21 11 - - SSW 1006,3 35 0,0
16.10.2018 17:00:00 11,4 7,9 - - 16 9 - - SSW 1006,2 35 0,0
16.10.2018 16:00:00 11,3 8,5 - - 15 8 - - SW 1006,2 45 0,0
16.10.2018 15:00:00 11,1 9,5 - - 13 7 - - SSW 1006,2 24 0,4
16.10.2018 14:00:00 10,2 9,5 - - 18 10 - - SSW 1006,1 4,4 0,8
16.10.2018 13:00:00 10,1 8,8 - - 22 12 46 25 SSW 1005,8 4,7 0,2
16.10.2018 12:00:00 10,9 5,7 - - 26 14 55 30 S 1005,8 50 0,0
16.10.2018 11:00:00 11,2 4,8 - - 28 15 54 29 SSE 1006,0 45 0,0
16.10.2018 10:00:00 10,5 4,4 9,2 10,0 28 15 52 28 SSE 1006,6 40 0,0
16.10.2018 09:00:00 9,2 5,9 - - 15 8 - - SW 1007,8 45 0,0
16.10.2018 08:00:00 9,2 5,1 - - 21 11 - - S 1008,6 50 0,0
16.10.2018 07:00:00 8,5 4,7 - - 9 5 - - S 1008,9 50 0,0
16.10.2018 06:00:00 8,1 4,2 - - 11 6 - - E 1009,6 50 0,0
16.10.2018 05:00:00 8,1 4,2 - - 13 7 - - E 1010,3 50 0,0
16.10.2018 04:00:00 8,2 3,9 - - 11 6 - - ESE 1011,3 50 0,0
16.10.2018 03:00:00 8,0 4,0 - - 13 7 - - SE 1012,1 50 0,0
16.10.2018 02:00:00 7,9 3,1 - - 8 4 - - NW 1012,9 50 0,0
16.10.2018 01:00:00 8,0 3,1 - - 11 6 - - SE 1013,1 50 0,0
16.10.2018 00:00:00 8,0 4,1 - - 9 5 - - S 1014,1 50 0,0
15.10.2018 23:00:00 7,3 4,4 - - 9 5 - - S 1014,7 50 0,0
15.10.2018 22:00:00 7,6 4,4 - - 16 9 - - S 1015,2 50 0,0
15.10.2018 21:00:00 6,9 4,2 - - 8 4 - - ESE 1015,3 40 0,0
15.10.2018 20:00:00 7,0 4,5 - - 4 2 - - SW 1015,3 50 0,0
15.10.2018 19:00:00 5,3 4,3 - - 8 4 - - S 1015,8 50 0,0
15.10.2018 18:00:00 6,9 4,5 - - 5 3 - - S 1015,1 50 0,0
15.10.2018 17:00:00 9,6 5,0 - - 5 3 - - S 1014,8 50 0,0
15.10.2018 16:00:00 11,7 4,5 - - 15 8 - - S 1014,6 35 0,0
15.10.2018 15:00:00 11,8 4,7 - - 15 8 - - S 1014,8 40 0,0
15.10.2018 14:00:00 11,9 5,0 - - 13 7 - - SSW 1015,1 40 0,0
15.10.2018 13:00:00 11,5 5,3 - - 16 9 - - SSW 1015,4 30 0,0
15.10.2018 12:00:00 10,6 5,7 - - 15 8 - - S 1015,4 50 0,0
15.10.2018 11:00:00 8,1 4,3 - - 11 6 - - SSW 1015,9 45 0,0
15.10.2018 10:00:00 7,9 5,1 9,4 10,0 8 4 - - S 1015,7 50 0,0
15.10.2018 09:00:00 6,9 4,1 - - 9 5 - - SW 1015,4 50 0,0
15.10.2018 08:00:00 5,8 4,1 - - 8 4 - - SSW 1014,7 50 0,0
15.10.2018 07:00:00 5,5 3,9 - - 5 3 - - S 1014,3 50 0,0
15.10.2018 06:00:00 4,8 4,0 - - 4 2 - - S 1013,9 50 0,0
15.10.2018 05:00:00 6,4 4,0 - - 9 5 - - SSW 1013,8 45 0,0
15.10.2018 04:00:00 6,1 3,4 - - 8 4 - - SW 1013,8 50 0,0
15.10.2018 03:00:00 5,8 3,7 - - 8 4 - - E 1014,1 50 0,0
15.10.2018 02:00:00 6,3 4,2 - - 5 3 - - SW 1014,0 50 0,0
15.10.2018 01:00:00 5,2 4,5 - - 9 5 - - S 1013,6 45 0,0
15.10.2018 00:00:00 3,7 3,7 - - 8 4 - - S 1013,5 45 0,0
14.10.2018 23:00:00 2,2 2,0 - - 5 3 - - S 1013,4 1,2 0,0
14.10.2018 22:00:00 2,3 2,0 - - 2 1 - - S 1013,1 50 0,0
14.10.2018 21:00:00 2,4 2,1 - - 5 3 - - S 1012,7 8 0,0
14.10.2018 20:00:00 4,0 2,9 - - 8 4 - - S 1011,8 50 0,0
14.10.2018 19:00:00 3,4 2,2 - - 5 3 - - SSW 1011,4 50 0,0
14.10.2018 18:00:00 7,7 2,5 - - 9 5 - - SW 1009,9 50 0,0
14.10.2018 17:00:00 8,8 3,5 - - 8 4 - - WSW 1009,3 50 0,0
14.10.2018 16:00:00 11,1 3,5 - - 11 6 - - S 1008,8 50 0,0
14.10.2018 15:00:00 10,4 4,0 - - 9 5 - - SSE 1008,7 35 0,0
14.10.2018 14:00:00 9,2 4,1 - - 8 4 - - NW 1008,7 40 0,0
14.10.2018 13:00:00 9,8 6,2 - - 8 4 - - NW 1008,4 50 0,0
14.10.2018 12:00:00 8,8 6,2 - - 4 2 - - E 1008,8 40 0,0
14.10.2018 11:00:00 5,7 5,7 - - 2 1 - - NE 1008,7 50 0,0
14.10.2018 10:00:00 4,6 4,6 10,0 10,0 4 2 - - NE 1008,4 50 0,0
14.10.2018 09:00:00 3,4 3,4 - - 2 1 - - ENE 1008,1 14 0,2
14.10.2018 08:00:00 2,7 2,7 - - 2 1 - - S 1007,1 1,2 0,0
14.10.2018 07:00:00 3,8 3,8 - - 5 3 - - NE 1007,0 50 0,0
14.10.2018 06:00:00 2,8 2,4 - - 2 1 - - SSE 1006,4 1,1 0,0
14.10.2018 05:00:00 4,9 3,5 - - 2 1 - - NNE 1004,9 50 0,0
14.10.2018 04:00:00 6,7 3,7 - - 16 9 - - W 1004,1 50 0,2
14.10.2018 03:00:00 7,1 5,7 - - 18 10 - - W 1003,1 9 0,8
14.10.2018 02:00:00 7,4 6,3 - - 5 3 - - SW 1001,6 17 0,0
14.10.2018 01:00:00 7,4 6,5 - - 13 7 - - W 1000,0 9 0,2
14.10.2018 00:00:00 7,6 6,9 - - 13 7 - - W 998,8 6 0,0
13.10.2018 23:00:00 7,7 6,9 - - 15 8 - - W 998,2 3,9 0,6
13.10.2018 22:00:00 8,0 7,2 - - 13 7 - - WNW 997,0 2,9 0,8
13.10.2018 21:00:00 8,2 7,5 - - 15 8 - - WNW 995,8 5 0,8
13.10.2018 20:00:00 8,2 7,6 - - 11 6 - - W 995,3 3,3 1,4
13.10.2018 19:00:00 8,3 7,9 - - 5 3 - - W 995,4 3,9 1,8
13.10.2018 18:00:00 8,4 8,1 - - 2 1 - - W 995,8 4,4 3,8
13.10.2018 17:00:00 8,6 8,2 - - 4 2 - - N 996,3 5 2,8
13.10.2018 16:00:00 8,8 8,2 - - 5 3 - - E 997,1 6 2,8
13.10.2018 15:00:00 9,0 8,2 - - 5 3 - - E 998,1 12 1,0
13.10.2018 14:00:00 9,0 8,2 - - 4 2 - - ESE 998,9 11 1,6
13.10.2018 13:00:00 9,0 8,4 - - 5 3 - - ENE 1000,4 7 1,8
13.10.2018 12:00:00 9,1 8,2 - - 2 1 - - E 1001,1 8 1,2
13.10.2018 11:00:00 9,1 8,0 - - 5 3 - - S 1001,4 9 0,4
13.10.2018 10:00:00 9,3 7,8 10,2 10,5 5 3 - - SSE 1001,2 20 0,0
13.10.2018 09:00:00 9,4 7,1 - - 5 3 - - ESE 1002,3 22 0,0
13.10.2018 08:00:00 9,2 7,2 - - 5 3 - - ESE 1002,1 30 0,0
13.10.2018 07:00:00 9,3 6,9 - - 4 2 - - S 1001,6 30 0,0
13.10.2018 06:00:00 8,6 8,0 - - 5 3 - - NE 1001,5 28 0,0
13.10.2018 05:00:00 8,5 7,9 - - 8 4 - - NNW 1000,6 30 0,0
13.10.2018 04:00:00 9,9 7,3 - - 13 7 - - SSW 1000,9 23 0,0
13.10.2018 03:00:00 9,8 7,4 - - 21 11 - - S 1000,1 29 0,0
13.10.2018 02:00:00 9,8 7,8 - - 21 11 52 28 S 998,9 30 0,2
13.10.2018 01:00:00 10,9 6,5 - - 28 15 46 25 SSW 997,4 50 0,0
13.10.2018 00:00:00 10,7 7,5 - - 29 16 55 30 SSW 996,2 25 0,2
12.10.2018 23:00:00 11,5 6,9 - - 39 21 67 36 SSW 994,3 13 0,6
12.10.2018 22:00:00 12,0 6,7 - - 37 20 68 37 SSW 992,9 19 0,0
12.10.2018 21:00:00 12,3 6,0 - - 29 16 57 31 SSW 991,6 35 0,0
12.10.2018 20:00:00 11,5 6,7 - - 18 10 - - S 990,7 40 0,0
12.10.2018 19:00:00 11,6 7,6 - - 26 14 - - SSW 989,4 50 0,2
12.10.2018 18:00:00 11,1 9,9 - - 22 12 - - S 988,8 7 3,0
12.10.2018 17:00:00 11,4 10,0 - - 15 8 - - SSW 988,0 13 3,2
12.10.2018 16:00:00 10,8 9,2 - - 9 5 46 25 SE 988,5 7 2,8
12.10.2018 15:00:00 10,8 9,5 - - 8 4 59 32 S 989,2 5 2,0
12.10.2018 14:00:00 12,4 8,7 - - 28 15 54 29 SSE 989,5 11 0,0
12.10.2018 13:00:00 13,7 6,7 - - 34 18 59 32 S 990,1 17 0,0
12.10.2018 12:00:00 13,2 6,5 - - 22 12 57 31 S 989,6 17 0,0
12.10.2018 11:00:00 11,6 7,6 - - 26 14 57 31 S 989,4 21 0,0
12.10.2018 10:00:00 11,9 6,4 10,5 10,4 24 13 54 29 S 988,5 45 2,4
12.10.2018 09:00:00 10,9 8,6 - - 29 16 52 28 SSE 987,8 8 2,0
12.10.2018 08:00:00 9,1 7,3 - - 28 15 52 28 SE 988,5 7 2,2
12.10.2018 07:00:00 8,8 6,8 - - 26 14 54 29 SE 990,8 6 3,8
12.10.2018 06:00:00 9,1 6,3 - - 26 14 - - SE 992,7 14 0,2
12.10.2018 05:00:00 9,6 5,8 - - 21 11 - - SE 994,1 50 0,0
12.10.2018 04:00:00 9,4 6,0 - - 22 12 - - SSE 995,4 50 0,0
12.10.2018 03:00:00 9,1 6,4 - - 11 6 - - ESE 997,4 50 0,0
12.10.2018 02:00:00 5,9 5,8 - - 4 2 - - N 999,1 50 0,0
12.10.2018 01:00:00 6,1 5,9 - - 4 2 - - W 999,7 50 0,0
12.10.2018 00:00:00 5,4 5,4 - - 5 3 - - E 1000,3 50 0,0
11.10.2018 23:00:00 6,8 6,0 - - 9 5 - - SSE 1000,6 50 0,0
11.10.2018 22:00:00 7,2 6,2 - - 5 3 - - S 1000,1 50 0,0
11.10.2018 21:00:00 9,4 8,4 - - 9 5 - - SSE 999,3 50 0,2
11.10.2018 20:00:00 9,4 8,8 - - 11 6 - - WNW 998,3 35 0,2
11.10.2018 19:00:00 10,8 9,8 - - 16 9 - - S 997,4 9 1,8
11.10.2018 18:00:00 12,6 11,4 - - 13 7 - - SSE 994,9 6 3,0
11.10.2018 17:00:00 13,7 10,7 - - 29 16 54 29 SSE 994,0 9 0,4
11.10.2018 16:00:00 14,8 10,7 - - 24 13 46 25 SSE 994,0 22 0,4
11.10.2018 15:00:00 14,2 11,6 - - 13 7 - - S 994,6 26 0,2
11.10.2018 14:00:00 15,3 10,4 - - 21 11 - - SSE 994,7 21 0,0
11.10.2018 13:00:00 14,3 11,2 - - 15 8 - - S 995,5 13 0,0
11.10.2018 12:00:00 14,4 11,7 - - 22 12 - - SE 995,5 14 0,0
11.10.2018 11:00:00 13,1 11,5 - - 13 7 - - SE 996,5 7 0,0
11.10.2018 10:00:00 13,1 10,5 10,9 10,4 18 10 - - SE 996,9 9 0,0
11.10.2018 09:00:00 13,2 9,6 - - 13 7 - - SE 997,7 12 0,0
11.10.2018 08:00:00 12,2 9,0 - - 5 3 - - SE 998,3 14 0,0
11.10.2018 07:00:00 10,4 7,9 - - 4 2 - - WNW 998,8 14 0,0
11.10.2018 06:00:00 12,0 7,8 - - 5 3 - - SE 1000,1 18 0,0
11.10.2018 05:00:00 12,8 7,7 - - 11 6 - - SSE 1001,1 30 0,0

tt = temperature
td = dewpoint
tt -20cm = temperature -20cm
tt -100cm = temperature -100cm
ff = wind speed
fx = gusts
dd = wind direction
ppp = reduced air pressure
vv = visibility
rr = precipitation

Next stations